Terminal Aerodrome Forecast
Issued by NWS Houston/Galveston TX

Home | Current Version | Previous Version | Text Only | Print | Product List | Glossary On
Versions: 1 2 3 4 5 6 7 8 9 10 11 12 13 14 15 16 17 18 19 20 21 22 23 24 25 26 27 28 29 30 31 32 33 34 35 36 37 38 39 40 41 42 43 44 45 46 47 48 49 50
000
FTUS44 KHGX 191722
TAFHOU
TAF
KHOU 191722Z 1918/2018 11007KT P6SM FEW008 SCT025 BKN080
     FM200000 10005KT P6SM SCT035 BKN250
     FM200600 08004KT P6SM SCT025
      TEMPO 2009/2013 5SM BR FEW010 BKN025
     FM201500 08007KT P6SM SCT030=

USA.gov is the U.S. government's official web portal to all federal, state and local government web resources and services.